| time (UTC) | temp F | wind direction | speed MPH | gust MPH | rain 1hr in | rain 24hr in | rain mn in | humidity % | barometer mb |
| 20260902140559 | 85 | 0.0 | 0.0 | 0.00 | 0.00 | 0.00 | 87 | 1019.4 | |
| 20260902135527 | 83 | 0.0 | 0.0 | 0.00 | 0.00 | 0.00 | 92 | 1019.4 | |
| 20260902134555 | 83 | 0.0 | 0.0 | 0.00 | 0.00 | 0.00 | 93 | 1019.3 | |
| 20260902133545 | 81 | 0.0 | 0.0 | 0.00 | 0.00 | 0.00 | 97 | 1019.2 | |
| 20260902132553 | 80 | 0.0 | 0.0 | 0.00 | 0.00 | 0.00 | 99 | 1019.1 | |
| 20260902131522 | 80 | 0.0 | 0.0 | 0.00 | 0.00 | 0.00 | 99 | 1019.2 | |
| 20260902130551 | 80 | 0.0 | 0.0 | 0.00 | 0.00 | 0.00 | 99 | 1019.1 | |
| 20260902125540 | 80 | 0.0 | 0.0 | 0.00 | 0.00 | 0.00 | 99 | 1019.0 | |
| 20260902124528 | 79 | 0.0 | 0.0 | 0.00 | 0.00 | 0.00 | 99 | 1018.8 | |
| 20260902123535 | 79 | 0.0 | 0.0 | 0.00 | 0.00 | 0.00 | 99 | 1018.6 | |
| 20260902122525 | 79 | 0.0 | 0.0 | 0.00 | 0.00 | 0.00 | 99 | 1018.5 | |
| 20260902121533 | 78 | 0.0 | 0.0 | 0.00 | 0.00 | 0.00 | 99 | 1018.6 | |
| 20260902120522 | 78 | 0.0 | 0.0 | 0.00 | 0.00 | 0.00 | 99 | 1018.5 | |
| 20260902115530 | 78 | 0.0 | 0.0 | 0.00 | 0.00 | 0.00 | 99 | 1018.4 | |
| 20260902114520 | 78 | 0.0 | 0.0 | 0.00 | 0.00 | 0.00 | 99 | 1018.4 | |
| 20260902113528 | 78 | 0.0 | 0.0 | 0.00 | 0.00 | 0.00 | 99 | 1018.3 | |
| 20260902112556 | 78 | 0.0 | 0.0 | 0.00 | 0.00 | 0.00 | 98 | 1018.3 | |
| 20260902111606 | 78 | 0.0 | 0.0 | 0.00 | 0.00 | 0.00 | 98 | 1018.1 | |
| 20260902110533 | 78 | 0.0 | 0.0 | 0.00 | 0.00 | 0.00 | 98 | 1018.0 | |
| 20260902105543 | 78 | 0.0 | 0.0 | 0.00 | 0.00 | 0.00 | 98 | 1017.9 | |
| 20260902104531 | 78 | 0.0 | 0.0 | 0.00 | 0.00 | 0.00 | 98 | 1017.8 | |
| 20260902103521 | 78 | 0.0 | 0.0 | 0.00 | 0.00 | 0.00 | 98 | 1017.7 | |
| 20260902102609 | 78 | 0.0 | 0.0 | 0.00 | 0.00 | 0.00 | 98 | 1017.8 | |
| 20260902101536 | 78 | 0.0 | 0.0 | 0.00 | 0.00 | 0.00 | 98 | 1017.7 | |
| 20260902100526 | 78 | 0.0 | 0.0 | 0.00 | 0.00 | 0.00 | 98 | 1017.8 | |
| 20260902095534 | 78 | 0.0 | 0.0 | 0.00 | 0.00 | 0.00 | 98 | 1017.7 | |
| 20260902094523 | 78 | 0.0 | 0.0 | 0.00 | 0.00 | 0.00 | 97 | 1017.6 | |
| 20260902093531 | 78 | 0.0 | 0.0 | 0.00 | 0.00 | 0.00 | 97 | 1017.5 | |
| 20260902092521 | 78 | 0.0 | 0.0 | 0.00 | 0.00 | 0.00 | 97 | 1017.5 | |
| 20260902091529 | 78 | 0.0 | 0.0 | 0.00 | 0.00 | 0.00 | 97 | 1017.4 | |
| 20260902090537 | 78 | 0.0 | 0.0 | 0.00 | 0.00 | 0.00 | 96 | 1017.2 | |
| 20260902085526 | 78 | 0.0 | 0.0 | 0.00 | 0.00 | 0.00 | 96 | 1017.2 | |
| 20260902084534 | 78 | 0.0 | 0.0 | 0.00 | 0.00 | 0.00 | 96 | 1017.3 | |
| 20260902083524 | 78 | 0.0 | 0.0 | 0.00 | 0.00 | 0.00 | 96 | 1017.3 | |
| 20260902082532 | 78 | 0.0 | 0.0 | 0.00 | 0.00 | 0.00 | 96 | 1017.3 | |
| 20260902081521 | 78 | 0.0 | 0.0 | 0.00 | 0.00 | 0.00 | 95 | 1017.3 | |
| 20260902080529 | 78 | 0.0 | 0.0 | 0.00 | 0.00 | 0.00 | 95 | 1017.3 | |
| 20260902075519 | 78 | 0.0 | 0.0 | 0.00 | 0.00 | 0.00 | 95 | 1017.2 | |
| 20260902073535 | 78 | 0.0 | 0.0 | 0.00 | 0.00 | 0.00 | 94 | 1017.2 | |
| 20260902072525 | 78 | 0.0 | 0.0 | 0.00 | 0.00 | 0.00 | 94 | 1017.4 | |
| 20260902071552 | 79 | 0.0 | 0.0 | 0.00 | 0.00 | 0.00 | 94 | 1017.4 | |
| 20260902070750 | 0 | 0.0 | 0.0 | 0.00 | 0.00 | 0.00 | 1017.5 | ||
| 20260902070522 | 79 | 0.0 | 0.0 | 0.00 | 0.00 | 0.00 | 94 | 1017.5 | |
| 20260902065530 | 79 | 0.0 | 0.0 | 0.00 | 0.00 | 0.00 | 94 | 1017.5 | |
| 20260902064522 | 79 | 0.0 | 0.0 | 0.00 | 0.00 | 0.00 | 93 | 1017.5 | |
| 20260902063528 | 79 | 0.0 | 0.0 | 0.00 | 0.00 | 0.00 | 93 | 1017.5 | |
| 20260902062535 | 79 | 0.0 | 0.0 | 0.00 | 0.00 | 0.00 | 93 | 1017.6 | |
| 20260902061525 | 79 | 0.0 | 0.0 | 0.00 | 0.00 | 0.00 | 93 | 1017.6 | |
| 20260902060533 | 80 | 0.0 | 0.0 | 0.00 | 0.00 | 0.00 | 92 | 1017.6 | |
| 20260902055522 | 80 | 0.0 | 0.0 | 0.00 | 0.00 | 0.00 | 92 | 1017.6 | |
| 20260902054531 | 80 | 0.0 | 0.0 | 0.00 | 0.00 | 0.00 | 91 | 1017.7 | |
| 20260902053520 | 80 | 0.0 | 0.0 | 0.00 | 0.00 | 0.00 | 91 | 1017.7 | |
| 20260902052528 | 80 | 0.0 | 0.0 | 0.00 | 0.00 | 0.00 | 91 | 1017.8 | |
| 20260902051536 | 80 | 0.0 | 0.0 | 0.00 | 0.00 | 0.00 | 91 | 1017.7 | |
| 20260902050526 | 80 | 0.0 | 0.0 | 0.00 | 0.00 | 0.00 | 91 | 1017.8 | |
| 20260902045534 | 80 | 0.0 | 0.0 | 0.00 | 0.00 | 0.00 | 91 | 1017.8 | |
| 20260902044543 | 80 | 0.0 | 0.0 | 0.00 | 0.00 | 0.00 | 91 | 1017.8 | |
| 20260902043532 | 80 | 0.0 | 0.0 | 0.00 | 0.00 | 0.00 | 90 | 1017.7 | |
| 20260902042520 | 81 | 0.0 | 0.0 | 0.00 | 0.00 | 0.00 | 89 | 1017.7 | |
| 20260902041529 | 81 | 0.0 | 0.0 | 0.00 | 0.00 | 0.00 | 88 | 1017.8 | |
| 20260902040536 | 81 | 0.0 | 0.0 | 0.00 | 0.00 | 0.00 | 88 | 1017.9 | |
| 20260902035526 | 81 | 0.0 | 0.0 | 0.00 | 0.00 | 0.00 | 88 | 1018.1 | |
| 20260902034534 | 82 | 0.0 | 0.0 | 0.00 | 0.00 | 0.00 | 88 | 1018.2 | |
| 20260902033544 | 82 | 0.0 | 0.0 | 0.00 | 0.00 | 0.00 | 88 | 1018.2 | |
| 20260902032531 | 82 | 0.0 | 0.0 | 0.00 | 0.00 | 0.00 | 88 | 1018.3 | |
| 20260902031524 | 82 | 0.0 | 0.0 | 0.00 | 0.00 | 0.00 | 88 | 1018.4 | |
| 20260902030529 | 82 | 0.0 | 0.0 | 0.00 | 0.00 | 0.00 | 88 | 1018.5 | |
| 20260902025537 | 82 | 0.0 | 0.0 | 0.00 | 0.00 | 0.00 | 87 | 1018.4 | |
| 20260902024526 | 82 | 0.0 | 0.0 | 0.00 | 0.00 | 0.00 | 87 | 1018.4 | |
| 20260902023554 | 82 | 0.0 | 0.0 | 0.00 | 0.00 | 0.00 | 87 | 1018.3 | |
| 20260902022525 | 82 | 0.0 | 0.0 | 0.00 | 0.00 | 0.00 | 87 | 1018.2 | |
| 20260902021532 | 82 | 0.0 | 0.0 | 0.00 | 0.00 | 0.00 | 87 | 1018.0 | |
| 20260902020521 | 82 | 0.0 | 0.0 | 0.00 | 0.00 | 0.00 | 86 | 1017.9 | |
| 20260902015529 | 83 | 0.0 | 0.0 | 0.00 | 0.00 | 0.00 | 85 | 1017.8 | |
| 20260902014539 | 83 | 0.0 | 0.0 | 0.00 | 0.00 | 0.00 | 84 | 1017.6 | |
| 20260902013526 | 83 | 0.0 | 0.0 | 0.00 | 0.00 | 0.00 | 84 | 1017.5 | |
| 20260902012535 | 84 | 113 | 0.0 | 1.0 | 0.00 | 0.00 | 0.00 | 83 | 1017.4 |
| 20260902011525 | 84 | 150 | 1.0 | 2.0 | 0.00 | 0.00 | 0.00 | 82 | 1017.2 |
| 20260902010532 | 84 | 154 | 2.0 | 4.0 | 0.00 | 0.00 | 0.00 | 81 | 1017.2 |
| 20260902005542 | 84 | 139 | 1.0 | 3.0 | 0.00 | 0.00 | 0.00 | 81 | 1017.2 |
| 20260902004530 | 84 | 145 | 2.0 | 4.0 | 0.00 | 0.00 | 0.00 | 80 | 1017.1 |
| 20260902003519 | 84 | 169 | 2.0 | 4.0 | 0.00 | 0.00 | 0.00 | 79 | 1017.1 |
| 20260902002548 | 85 | 156 | 1.0 | 2.0 | 0.00 | 0.00 | 0.00 | 79 | 1016.9 |
| 20260902001535 | 85 | 135 | 1.0 | 4.0 | 0.00 | 0.00 | 0.00 | 79 | 1016.9 |
| 20260902000525 | 85 | 183 | 1.0 | 2.0 | 0.00 | 0.00 | 0.00 | 79 | 1016.9 |
| 20260901235532 | 85 | 137 | 2.0 | 3.0 | 0.00 | 0.00 | 0.00 | 79 | 1017.0 |
| 20260901234522 | 85 | 152 | 2.0 | 4.0 | 0.00 | 0.00 | 0.00 | 79 | 1017.0 |
| 20260901233530 | 86 | 135 | 1.0 | 4.0 | 0.00 | 0.00 | 0.00 | 78 | 1017.0 |
| 20260901232520 | 87 | 0.0 | 0.0 | 0.00 | 0.00 | 0.00 | 78 | 1017.0 | |
| 20260901231527 | 87 | 161 | 3.0 | 4.0 | 0.00 | 0.00 | 0.00 | 76 | 1017.0 |
| 20260901230535 | 87 | 149 | 4.0 | 5.0 | 0.00 | 0.00 | 0.00 | 76 | 1017.1 |
| 20260901225524 | 87 | 152 | 4.0 | 6.0 | 0.00 | 0.00 | 0.00 | 75 | 1017.1 |
| 20260901224553 | 88 | 122 | 3.0 | 6.0 | 0.00 | 0.00 | 0.00 | 74 | 1017.2 |
| 20260901223522 | 88 | 131 | 2.0 | 3.0 | 0.00 | 0.00 | 0.00 | 74 | 1017.1 |
| 20260901222530 | 88 | 126 | 1.0 | 3.0 | 0.00 | 0.00 | 0.00 | 74 | 1017.1 |
| 20260901221519 | 88 | 156 | 3.0 | 6.0 | 0.00 | 0.00 | 0.00 | 74 | 1017.0 |
| 20260901220527 | 88 | 144 | 3.0 | 4.0 | 0.00 | 0.00 | 0.00 | 73 | 1016.9 |
| 20260901215535 | 88 | 124 | 2.0 | 4.0 | 0.00 | 0.00 | 0.00 | 73 | 1017.1 |
| 20260901214524 | 88 | 0.0 | 0.0 | 0.00 | 0.00 | 0.00 | 73 | 1017.1 | |
| 20260901213718 | 88 | 0.0 | 0.0 | 0.00 | 0.00 | 0.00 | 74 | 1017.2 | |
| 20260901212522 | 88 | 0.0 | 0.0 | 0.00 | 0.00 | 0.00 | 75 | 1017.2 | |
| 20260901211530 | 87 | 0.0 | 0.0 | 0.00 | 0.00 | 0.00 | 76 | 1017.2 | |
| 20260901210521 | 86 | 0.0 | 0.0 | 0.00 | 0.00 | 0.00 | 79 | 1017.3 | |
| 20260901205527 | 86 | 0.0 | 0.0 | 0.00 | 0.00 | 0.00 | 80 | 1017.3 | |
| 20260901204535 | 86 | 0.0 | 0.0 | 0.00 | 0.00 | 0.00 | 80 | 1017.4 | |
| 20260901203525 | 85 | 0.0 | 0.0 | 0.00 | 0.00 | 0.00 | 82 | 1017.8 | |
| 20260901202533 | 84 | 0.0 | 0.0 | 0.00 | 0.00 | 0.00 | 84 | 1018.1 | |
| 20260901201603 | 84 | 153 | 2.0 | 3.0 | 0.00 | 0.00 | 0.00 | 84 | 1018.3 |
| 20260901200531 | 85 | 167 | 3.0 | 6.0 | 0.00 | 0.00 | 0.00 | 79 | 1018.5 |
| 20260901195520 | 85 | 186 | 5.0 | 7.0 | 0.00 | 0.00 | 0.00 | 78 | 1018.6 |
| 20260901194528 | 87 | 306 | 2.0 | 4.0 | 0.00 | 0.00 | 0.00 | 76 | 1018.6 |
| 20260901193536 | 88 | 208 | 3.0 | 5.0 | 0.00 | 0.00 | 0.00 | 76 | 1018.5 |
| 20260901192526 | 92 | 22 | 2.0 | 4.0 | 0.00 | 0.00 | 0.00 | 67 | 1018.4 |
| 20260901191533 | 93 | 9 | 2.0 | 6.0 | 0.00 | 0.00 | 0.00 | 63 | 1018.2 |
| 20260901190522 | 94 | 154 | 4.0 | 7.0 | 0.00 | 0.00 | 0.00 | 65 | 1018.3 |
| 20260901185531 | 93 | 151 | 4.0 | 7.0 | 0.00 | 0.00 | 0.00 | 66 | 1018.1 |
| 20260901184540 | 94 | 111 | 3.0 | 8.0 | 0.00 | 0.00 | 0.00 | 66 | 1018.1 |
| 20260901183528 | 94 | 144 | 4.0 | 6.0 | 0.00 | 0.00 | 0.00 | 65 | 1018.0 |
| 20260901182556 | 93 | 33 | 5.0 | 10.0 | 0.00 | 0.00 | 0.00 | 67 | 1018.1 |
| 20260901181605 | 94 | 112 | 6.0 | 8.0 | 0.00 | 0.00 | 0.00 | 66 | 1018.2 |
| 20260901180533 | 94 | 95 | 5.0 | 8.0 | 0.00 | 0.00 | 0.00 | 66 | 1018.3 |
| 20260901175542 | 94 | 299 | 3.0 | 5.0 | 0.00 | 0.00 | 0.00 | 66 | 1018.4 |
| 20260901174530 | 94 | 110 | 3.0 | 9.0 | 0.00 | 0.00 | 0.00 | 66 | 1018.5 |
| 20260901173520 | 93 | 214 | 4.0 | 7.0 | 0.00 | 0.00 | 0.00 | 67 | 1018.5 |
| 20260901172528 | 93 | 37 | 3.0 | 7.0 | 0.00 | 0.00 | 0.00 | 68 | 1018.5 |
| 20260901171536 | 92 | 34 | 3.0 | 7.0 | 0.00 | 0.00 | 0.00 | 69 | 1018.7 |
| 20260901170525 | 89 | 360 | 3.0 | 10.0 | 0.00 | 0.00 | 0.00 | 73 | 1018.7 |
| 20260901165533 | 89 | 110 | 3.0 | 5.0 | 0.00 | 0.00 | 0.00 | 74 | 1018.8 |
| 20260901164523 | 92 | 121 | 4.0 | 7.0 | 0.00 | 0.00 | 0.00 | 67 | 1018.9 |
| 20260901163531 | 94 | 162 | 4.0 | 9.0 | 0.00 | 0.00 | 0.00 | 61 | 1019.0 |
| 20260901162520 | 93 | 78 | 3.0 | 5.0 | 0.00 | 0.00 | 0.00 | 60 | 1019.1 |
| 20260901161528 | 93 | 131 | 4.0 | 6.0 | 0.00 | 0.00 | 0.00 | 63 | 1019.0 |
| 20260901160536 | 92 | 126 | 5.0 | 8.0 | 0.00 | 0.00 | 0.00 | 66 | 1018.9 |
| 20260901155525 | 93 | 103 | 4.0 | 6.0 | 0.00 | 0.00 | 0.00 | 65 | 1018.8 |
| 20260901154533 | 92 | 143 | 4.0 | 7.0 | 0.00 | 0.00 | 0.00 | 66 | 1018.7 |
| 20260901153522 | 91 | 134 | 4.0 | 6.0 | 0.00 | 0.00 | 0.00 | 69 | 1018.8 |
| 20260901152530 | 91 | 144 | 4.0 | 6.0 | 0.00 | 0.00 | 0.00 | 68 | 1018.7 |
| 20260901151520 | 91 | 144 | 5.0 | 7.0 | 0.00 | 0.00 | 0.00 | 68 | 1018.6 |
| 20260901150527 | 90 | 119 | 3.0 | 6.0 | 0.00 | 0.01 | 0.00 | 72 | 1018.7 |
| 20260901145535 | 90 | 123 | 3.0 | 5.0 | 0.00 | 0.01 | 0.00 | 73 | 1018.7 |
| 20260901144525 | 89 | 95 | 3.0 | 6.0 | 0.00 | 0.01 | 0.00 | 76 | 1018.6 |
| 20260901143533 | 88 | 146 | 4.0 | 6.0 | 0.00 | 0.01 | 0.00 | 78 | 1018.7 |
| 20260901142542 | 88 | 142 | 4.0 | 5.0 | 0.00 | 0.01 | 0.00 | 77 | 1018.8 |
| 20260901141550 | 88 | 143 | 3.0 | 6.0 | 0.00 | 0.01 | 0.00 | 77 | 1018.7 |